Le nostre stazioni meteo in Italia

Pubblicità
Il mio iltempo24.it
Casale Monferrato, Italia (16068): Temperatura & dewpoint: 12.03.2019 20:00:00 - 18.03.2019 20:00:00 (CET)Casale Monferrato, Italia (16068): velocità del vento: 12.03.2019 20:00:00 - 18.03.2019 20:00:00 (CET)Casale Monferrato, Italia (16068): direzione del vento: 12.03.2019 20:00:00 - 18.03.2019 20:00:00 (CET)Casale Monferrato, Italia (16068): reduced air pressure: 12.03.2019 20:00:00 - 18.03.2019 20:00:00 (CET)
Data & Tempo tt [°C] td [°C] ff [km/h] ff [kn] dd ppp [hPa]
18.03.2019 20:00:00 - - - - - -
18.03.2019 19:00:00 11,4 -9,1 9 5 NE 1016,1
18.03.2019 18:00:00 14,1 -10,0 24 13 NE 1015,1
18.03.2019 17:00:00 15,4 -6,9 18 10 NE 1014,4
18.03.2019 16:00:00 16,0 -8,4 21 11 NE 1014,1
18.03.2019 15:00:00 16,3 -6,8 16 9 NE 1014,0
18.03.2019 14:00:00 16,0 -4,7 16 9 NE 1014,2
18.03.2019 13:00:00 15,8 -3,3 9 5 N 1014,7
18.03.2019 12:00:00 15,0 -2,1 13 7 N 1014,8
18.03.2019 11:00:00 14,1 -3,8 8 4 NNE 1014,7
18.03.2019 10:00:00 13,4 -0,4 5 3 NNE 1014,3
18.03.2019 09:00:00 9,6 5,7 5 3 O 1013,8
18.03.2019 08:00:00 7,1 5,5 8 4 OSO 1013,4
18.03.2019 07:00:00 3,8 2,3 5 3 OSO 1012,8
18.03.2019 06:00:00 4,4 2,9 8 4 OSO 1012,0
18.03.2019 05:00:00 6,0 4,5 5 3 SO 1011,3
18.03.2019 04:00:00 7,8 5,9 2 1 E 1010,9
18.03.2019 03:00:00 9,2 7,0 11 6 NNE 1010,7
18.03.2019 02:00:00 11,0 9,4 4 2 NO 1009,9
18.03.2019 01:00:00 12,0 10,1 4 2 O 1009,8
18.03.2019 00:00:00 12,0 10,2 9 5 SSO 1009,8
17.03.2019 23:00:00 11,2 9,6 4 2 S 1010,2
17.03.2019 22:00:00 11,7 9,9 4 2 SSO 1010,7
17.03.2019 21:00:00 12,0 9,9 9 5 S 1010,6
17.03.2019 20:00:00 11,7 8,7 4 2 SSE 1011,0
17.03.2019 19:00:00 12,1 8,7 4 2 S 1011,5
17.03.2019 18:00:00 12,0 9,0 5 3 SSO 1011,8
17.03.2019 17:00:00 12,2 9,7 2 1 OSO 1012,2
17.03.2019 16:00:00 12,2 9,7 2 1 ONO 1012,7
17.03.2019 15:00:00 12,2 9,4 4 2 NNO 1013,1
17.03.2019 14:00:00 11,9 9,3 8 4 NNO 1014,0
17.03.2019 13:00:00 12,3 9,5 4 2 N 1014,8
17.03.2019 12:00:00 11,6 9,1 2 1 ENE 1015,3
17.03.2019 11:00:00 11,0 9,2 0 0 N 1015,8
17.03.2019 10:00:00 9,8 8,2 0 0 N 1016,4
17.03.2019 09:00:00 9,2 8,0 0 0 N 1016,3
17.03.2019 08:00:00 8,1 6,9 0 0 N 1016,3
17.03.2019 07:00:00 6,4 5,0 0 0 N 1015,9
17.03.2019 06:00:00 7,3 6,1 0 0 N 1015,9
17.03.2019 05:00:00 6,0 4,6 2 1 O 1015,9
17.03.2019 04:00:00 5,9 4,4 4 2 O 1015,9
17.03.2019 03:00:00 6,7 5,2 4 2 O 1016,1
17.03.2019 02:00:00 8,7 6,8 2 1 SSE 1016,2
17.03.2019 01:00:00 8,7 4,5 5 3 ESE 1015,7
17.03.2019 00:00:00 11,9 7,8 4 2 SSO 1015,6
16.03.2019 23:00:00 12,1 7,6 8 4 SSO 1015,0
16.03.2019 22:00:00 12,4 7,4 9 5 SSO 1014,8
16.03.2019 21:00:00 12,8 7,4 11 6 SSO 1014,4
16.03.2019 20:00:00 13,7 7,6 11 6 S 1014,1
16.03.2019 19:00:00 15,4 8,6 5 3 SO 1013,3
16.03.2019 18:00:00 18,3 8,8 13 7 S 1012,6
16.03.2019 17:00:00 20,8 10,2 21 11 S 1012,1
16.03.2019 16:00:00 22,1 10,5 21 11 S 1012,3
16.03.2019 15:00:00 22,6 10,0 15 8 S 1012,3
16.03.2019 14:00:00 22,2 10,6 9 5 S 1012,8
16.03.2019 13:00:00 21,0 12,1 8 4 SE 1014,0
16.03.2019 12:00:00 19,3 11,0 11 6 SSO 1014,6
16.03.2019 11:00:00 16,4 10,9 9 5 SSO 1014,9
16.03.2019 10:00:00 14,6 10,2 9 5 SSO 1015,0
16.03.2019 09:00:00 10,1 8,8 0 0 N 1014,9
16.03.2019 08:00:00 5,5 4,0 2 1 NNE 1014,6
16.03.2019 07:00:00 4,7 1,7 2 1 NNO 1014,0
16.03.2019 06:00:00 7,2 2,8 2 1 O 1013,6
16.03.2019 05:00:00 5,4 2,7 4 2 OSO 1013,4
16.03.2019 04:00:00 7,2 4,5 5 3 SO 1013,0
16.03.2019 03:00:00 5,8 2,7 2 1 NNE 1013,6
16.03.2019 02:00:00 7,0 3,6 4 2 O 1013,5
16.03.2019 01:00:00 6,7 2,3 4 2 N 1013,5
16.03.2019 00:00:00 8,9 3,7 2 1 S 1013,5
15.03.2019 23:00:00 12,0 4,2 5 3 O 1013,0
15.03.2019 22:00:00 12,2 4,6 8 4 SO 1012,5
15.03.2019 21:00:00 13,4 5,0 4 2 S 1011,8
15.03.2019 20:00:00 13,8 4,3 9 5 S 1011,2
15.03.2019 19:00:00 14,8 4,4 4 2 ESE 1011,0
15.03.2019 18:00:00 17,4 5,6 9 5 SSE 1010,2
15.03.2019 17:00:00 19,1 4,4 21 11 S 1009,8
15.03.2019 16:00:00 21,4 7,2 15 8 SSE 1009,4
15.03.2019 15:00:00 21,1 4,1 11 6 S 1009,4
15.03.2019 14:00:00 21,2 3,8 4 2 NNO 1009,6
15.03.2019 13:00:00 19,8 4,6 4 2 S 1010,3
15.03.2019 12:00:00 17,8 4,3 8 4 E 1011,1
15.03.2019 11:00:00 16,6 4,8 8 4 S 1011,5
15.03.2019 10:00:00 13,7 5,8 9 5 SSO 1011,6
15.03.2019 09:00:00 10,3 5,2 5 3 SO 1011,5
15.03.2019 08:00:00 6,1 4,6 8 4 OSO 1011,4
15.03.2019 07:00:00 3,1 1,6 5 3 OSO 1011,9
15.03.2019 06:00:00 2,5 0,4 5 3 OSO 1011,5
15.03.2019 05:00:00 2,4 -0,1 2 1 NO 1010,8
15.03.2019 04:00:00 2,4 -0,1 5 3 OSO 1010,5
15.03.2019 03:00:00 3,5 0,2 0 0 N 1010,5
15.03.2019 02:00:00 4,7 0,0 2 1 SO 1010,3
15.03.2019 01:00:00 6,1 1,2 8 4 NO 1009,8
15.03.2019 00:00:00 6,1 0,6 11 6 S 1009,9
14.03.2019 23:00:00 9,1 1,7 5 3 OSO 1009,7
14.03.2019 22:00:00 9,9 1,2 5 3 O 1009,5
14.03.2019 21:00:00 10,7 0,3 5 3 O 1009,3
14.03.2019 20:00:00 11,7 -1,9 5 3 SO 1009,1
14.03.2019 19:00:00 13,4 -3,1 5 3 SO 1009,1
14.03.2019 18:00:00 15,7 -2,9 16 9 S 1008,4
14.03.2019 17:00:00 17,9 -3,6 4 2 SE 1008,4
14.03.2019 16:00:00 18,0 -4,1 9 5 S 1008,9
14.03.2019 15:00:00 17,7 -2,1 8 4 SSE 1010,1
14.03.2019 14:00:00 16,8 -3,4 11 6 SE 1011,4
14.03.2019 13:00:00 15,8 -3,8 9 5 SSE 1013,5
14.03.2019 12:00:00 14,4 -2,2 9 5 S 1014,3
14.03.2019 11:00:00 12,2 6,0 2 1 NE 1015,1
14.03.2019 10:00:00 8,7 4,1 4 2 N 1016,0
14.03.2019 09:00:00 5,5 4,3 0 0 N 1016,3
14.03.2019 08:00:00 0,3 -1,2 2 1 S 1016,5
14.03.2019 07:00:00 -0,5 -2,0 2 1 O 1016,6
14.03.2019 06:00:00 -0,5 -2,0 0 0 N 1016,5
14.03.2019 05:00:00 -1,0 -3,2 0 0 N 1016,4
14.03.2019 04:00:00 -0,1 -2,4 4 2 O 1016,1
14.03.2019 03:00:00 -0,5 -3,2 0 0 N 1016,2
14.03.2019 02:00:00 - - - - - -
14.03.2019 01:00:00 1,1 -2,9 4 2 SO 1015,4
14.03.2019 00:00:00 2,5 -2,3 8 4 OSO 1015,4
13.03.2019 23:00:00 3,7 -4,4 4 2 OSO 1015,2
13.03.2019 22:00:00 7,6 -2,3 4 2 NNE 1014,6
13.03.2019 21:00:00 9,9 -8,9 8 4 NNE 1013,4
13.03.2019 20:00:00 11,1 -7,8 8 4 NO 1012,5
13.03.2019 19:00:00 11,9 -6,2 4 2 NO 1011,7
13.03.2019 18:00:00 15,0 -6,7 11 6 NNO 1010,9
13.03.2019 17:00:00 15,4 -4,1 8 4 NE 1010,1
13.03.2019 16:00:00 15,9 -3,7 4 2 N 1010,0
13.03.2019 15:00:00 - - - - - -
13.03.2019 14:00:00 - - - - - -
13.03.2019 13:00:00 13,2 4,8 4 2 NE 1012,3
13.03.2019 12:00:00 - - - - - -
13.03.2019 11:00:00 11,0 2,7 4 2 S 1013,9
13.03.2019 10:00:00 8,6 0,5 2 1 N 1014,5
13.03.2019 09:00:00 5,5 -0,9 8 4 NO 1015,0
13.03.2019 08:00:00 1,2 -1,6 2 1 O 1015,1
13.03.2019 07:00:00 0,8 -2,3 0 0 N 1015,4
13.03.2019 06:00:00 1,2 -1,9 9 5 SO 1015,9
13.03.2019 05:00:00 0,8 -2,3 4 2 ONO 1016,2
13.03.2019 04:00:00 0,7 -2,6 4 2 ONO 1016,4
13.03.2019 03:00:00 0,7 -3,8 2 1 N 1017,3
13.03.2019 02:00:00 1,8 -2,8 2 1 NNO 1018,5
13.03.2019 01:00:00 2,1 -3,9 0 0 N 1019,1
13.03.2019 00:00:00 4,4 -1,7 2 1 SSO 1019,7
12.03.2019 23:00:00 3,9 -3,5 2 1 OSO 1020,2
12.03.2019 22:00:00 4,8 -2,6 2 1 O 1020,6
12.03.2019 21:00:00 6,4 -4,8 0 0 N 1020,8
12.03.2019 20:00:00 8,1 -5,2 4 2 S 1021,0

tt = Temperatura
td = dewpoint
ff = velocità del vento
dd = direzione del vento
ppp = reduced air pressure

Stazioni seguenti

WeatherPro
AMSI
MeteoEarth